CW4610 Weather Reports


Display with metric or nautical units.
time (UTC)temp
F
wind
direction
speed
MPH
gust
MPH
rain 1hr
in
rain 24hr
in
rain mn
in
humidity
%
barometer
mb
20260831014018 65 180 9.0 16.0 0.00 0.00 0.00 75 1017.0
20260831013018 66 180 8.0 14.0 0.00 0.00 0.00 73 1017.1
20260831012018 66 180 7.0 11.0 0.00 0.00 0.00 72 1017.1
20260831011018 66 180 5.0 8.0 0.00 0.00 0.00 72 1017.1
20260831010018 66 180 8.0 12.0 0.00 0.00 0.00 72 1017.1
20260831005018 66 180 10.0 15.0 0.00 0.00 0.00 72 1017.1
20260831004019 66 180 8.0 12.0 0.00 0.00 0.00 72 1017.3
20260831003018 66 180 7.0 14.0 0.00 0.00 0.00 72 1017.4
20260831002019 66 180 10.0 15.0 0.00 0.00 0.00 71 1017.4
20260831001019 67 180 12.0 17.0 0.00 0.00 0.00 70 1017.4
20260831000018 67 180 10.0 16.0 0.00 0.00 0.00 69 1017.6
20260830235038 67 180 7.0 12.0 0.00 0.00 0.00 72 1017.6
20260830234039 66 180 8.0 12.0 0.00 0.00 0.00 72 1017.6
20260830233018 66 180 9.0 14.0 0.00 0.00 0.00 72 1017.7
20260830232041 66 180 8.0 13.0 0.00 0.00 0.00 71 1017.7
20260830231018 66 180 6.0 9.0 0.00 0.00 0.00 72 1018.0
20260830230038 66 180 5.0 10.0 0.00 0.00 0.00 72 1018.1
20260830225018 65 180 5.0 10.0 0.00 0.00 0.00 73 1018.2
20260830224039 65 180 5.0 9.0 0.00 0.00 0.00 73 1018.4
20260830223019 65 180 5.0 9.0 0.00 0.00 0.00 74 1018.6
20260830222018 64 180 7.0 12.0 0.00 0.00 0.00 75 1018.6
20260830221018 64 180 7.0 12.0 0.00 0.00 0.00 75 1018.6
20260830220041 64 180 9.0 14.0 0.00 0.00 0.00 74 1018.6
20260830215020 65 180 6.0 12.0 0.00 0.00 0.00 75 1018.6
20260830214020 65 180 5.0 11.0 0.00 0.00 0.00 75 1018.6
20260830213021 64 180 6.0 8.0 0.00 0.00 0.00 75 1018.6
20260830212020 64 180 7.0 13.0 0.00 0.00 0.00 75 1018.6
20260830211152 64 180 8.0 13.0 0.00 0.00 0.00 74 1018.6
20260830210045 64 180 7.0 12.0 0.00 0.00 0.00 74 1018.5
20260830205039 64 180 5.0 9.0 0.00 0.00 0.00 74 1018.5
20260830204020 64 180 6.0 10.0 0.00 0.00 0.00 74 1018.5
20260830203021 64 180 8.0 12.0 0.00 0.00 0.00 74 1018.4
20260830202020 64 180 7.0 12.0 0.00 0.00 0.00 74 1018.4
20260830201040 64 180 9.0 15.0 0.00 0.00 0.00 74 1018.3
20260830200059 63 180 6.0 11.0 0.00 0.00 0.00 74 1018.2
20260830195041 63 180 8.0 12.0 0.00 0.00 0.00 74 1018.2
20260830194020 63 180 6.0 9.0 0.00 0.00 0.00 75 1018.2
20260830193020 63 180 6.0 11.0 0.00 0.00 0.00 75 1018.2
20260830192019 63 135 7.0 12.0 0.00 0.00 0.00 75 1018.2
20260830191040 63 180 7.0 11.0 0.00 0.00 0.00 75 1018.3
20260830190019 63 180 6.0 10.0 0.00 0.00 0.00 77 1018.4
20260830185019 63 180 6.0 10.0 0.00 0.00 0.00 79 1018.4
20260830184020 62 180 5.0 8.0 0.00 0.00 0.00 80 1018.6
20260830183019 62 180 5.0 9.0 0.00 0.00 0.00 80 1018.6
20260830182019 62 180 4.0 7.0 0.00 0.00 0.00 80 1018.6
20260830181020 62 180 5.0 8.0 0.00 0.00 0.00 80 1018.5
20260830180039 62 180 5.0 12.0 0.00 0.00 0.00 81 1018.3
20260830175019 62 180 8.0 13.0 0.00 0.00 0.00 81 1018.3
20260830174020 62 180 7.0 13.0 0.00 0.00 0.00 81 1018.2
20260830173020 62 180 7.0 11.0 0.00 0.00 0.00 81 1018.2
20260830172021 61 90 1.0 3.0 0.00 0.00 0.00 83 1018.2
20260830171019 61 158 3.0 6.0 0.00 0.00 0.00 83 1018.2
20260830170019 61 180 5.0 9.0 0.00 0.00 0.00 83 1018.2
20260830165100 61 180 3.0 4.0 0.00 0.00 0.00 84 1018.2
20260830164019 61 180 3.0 5.0 0.00 0.00 0.00 84 1018.2
20260830163020 60 180 5.0 10.0 0.00 0.00 0.00 84 1018.2
20260830162040 60 135 2.0 7.0 0.00 0.00 0.00 84 1018.2
20260830161019 60 0 0.0 1.0 0.00 0.00 0.00 85 1018.2
20260830160019 60 68 1.0 3.0 0.00 0.00 0.00 87 1018.2
20260830155019 59 338 1.0 2.0 0.00 0.00 0.00 87 1018.2
20260830154019 59 68 0.0 1.0 0.00 0.00 0.00 88 1018.3
20260830153020 59 68 1.0 3.0 0.00 0.00 0.00 88 1018.2
20260830152019 58 90 2.0 3.0 0.00 0.00 0.00 88 1018.2
20260830151039 58 90 3.0 5.0 0.00 0.00 0.00 88 1018.1
20260830150018 58 90 3.0 5.0 0.00 0.00 0.00 88 1018.1
20260830145019 58 90 3.0 7.0 0.00 0.00 0.00 88 1018.2
20260830144019 58 68 2.0 4.0 0.00 0.00 0.00 87 1018.1
20260830143019 58 90 2.0 3.0 0.00 0.00 0.00 86 1018.1
20260830142019 58 68 2.0 3.0 0.00 0.00 0.00 86 1018.0
20260830141040 58 68 1.0 2.0 0.00 0.00 0.00 86 1018.0
20260830140019 58 68 1.0 3.0 0.00 0.00 0.00 85 1017.8
20260830135019 58 90 3.0 5.0 0.00 0.00 0.00 85 1017.8
20260830134019 58 68 3.0 5.0 0.00 0.00 0.00 85 1017.7
20260830133019 58 68 2.0 5.0 0.00 0.00 0.00 84 1017.8
20260830132039 58 90 3.0 5.0 0.00 0.00 0.00 84 1017.8
20260830131019 58 90 2.0 5.0 0.00 0.00 0.00 83 1017.8
20260830130019 58 68 2.0 5.0 0.00 0.00 0.00 84 1017.8
20260830125019 58 68 2.0 4.0 0.00 0.00 0.00 83 1017.7
20260830124020 58 45 2.0 3.0 0.00 0.00 0.00 83 1017.7
20260830123019 58 68 2.0 3.0 0.00 0.00 0.00 83 1017.7
20260830122019 58 90 2.0 5.0 0.00 0.00 0.00 83 1017.7
20260830121018 58 68 2.0 5.0 0.00 0.00 0.00 84 1017.8
20260830120018 58 68 2.0 4.0 0.00 0.00 0.00 84 1017.9
20260830115019 58 45 1.0 3.0 0.00 0.00 0.00 84 1017.9
20260830114018 58 45 2.0 4.0 0.00 0.00 0.00 84 1017.8
20260830113019 58 45 2.0 4.0 0.00 0.00 0.00 83 1017.7
20260830112019 58 45 2.0 4.0 0.00 0.00 0.00 83 1017.7
20260830111059 58 45 2.0 7.0 0.00 0.00 0.00 83 1017.8
20260830110039 58 23 2.0 3.0 0.00 0.00 0.00 82 1017.9
20260830105018 59 23 2.0 3.0 0.00 0.00 0.00 82 1017.9
20260830104019 59 23 1.0 3.0 0.00 0.00 0.00 81 1017.9
20260830103018 59 45 1.0 3.0 0.00 0.00 0.00 80 1017.8
20260830102019 59 113 1.0 5.0 0.00 0.00 0.00 79 1017.8
20260830101039 59 45 2.0 4.0 0.00 0.00 0.00 79 1017.8
20260830100018 59 90 3.0 6.0 0.00 0.00 0.00 78 1017.8
20260830095039 59 158 4.0 10.0 0.00 0.00 0.00 78 1017.8
20260830094018 59 158 4.0 8.0 0.00 0.00 0.00 78 1017.8
20260830093019 59 135 0.0 2.0 0.00 0.00 0.00 80 1017.8
20260830092018 59 338 2.0 3.0 0.00 0.00 0.00 80 1017.8
20260830091019 59 338 2.0 3.0 0.00 0.00 0.00 80 1017.7
20260830090018 59 23 1.0 3.0 0.00 0.00 0.00 80 1017.7
20260830085038 59 0 2.0 3.0 0.00 0.00 0.00 81 1017.7
20260830084019 59 23 0.0 1.0 0.00 0.00 0.00 81 1017.7
20260830083018 59 23 1.0 4.0 0.00 0.00 0.00 81 1017.8
20260830082019 59 23 1.0 3.0 0.00 0.00 0.00 81 1017.8
20260830081018 59 23 1.0 3.0 0.00 0.00 0.00 81 1017.9
20260830080018 59 23 2.0 4.0 0.00 0.00 0.00 80 1017.7
20260830075018 59 0 2.0 3.0 0.00 0.00 0.00 80 1017.7
20260830074038 59 0 1.0 2.0 0.00 0.00 0.00 80 1017.7
20260830073044 59 0 2.0 3.0 0.00 0.00 0.00 80 1017.7
20260830072018 59 315 2.0 4.0 0.00 0.00 0.00 79 1017.7
20260830071018 59 68 1.0 3.0 0.00 0.00 0.00 79 1017.6
20260830070019 60 68 3.0 6.0 0.00 0.00 0.00 77 1017.6
20260830065019 59 135 4.0 8.0 0.00 0.00 0.00 77 1017.6
20260830064019 59 135 3.0 5.0 0.00 0.00 0.00 78 1017.6
20260830063039 59 180 6.0 12.0 0.00 0.00 0.00 78 1017.5
20260830062019 59 135 4.0 10.0 0.00 0.00 0.00 78 1017.5
20260830061020 59 293 2.0 4.0 0.00 0.00 0.00 79 1017.4
20260830060039 59 248 2.0 6.0 0.00 0.00 0.00 79 1017.5
20260830055019 59 0 0.0 2.0 0.00 0.00 0.00 80 1017.6
20260830054020 59 45 2.0 4.0 0.00 0.00 0.00 80 1017.6
20260830053019 59 315 1.0 4.0 0.00 0.00 0.00 79 1017.5
20260830052058 60 338 2.0 3.0 0.00 0.00 0.00 78 1017.5
20260830051059 60 0 2.0 3.0 0.00 0.00 0.00 77 1017.5
20260830050039 60 23 2.0 5.0 0.00 0.00 0.00 75 1017.4
20260830045018 60 180 9.0 17.0 0.00 0.00 0.00 75 1017.4
20260830044021 61 180 8.0 15.0 0.00 0.00 0.00 74 1017.1
20260830043019 61 158 3.0 5.0 0.00 0.00 0.00 72 1017.0
20260830042019 61 113 4.0 8.0 0.00 0.00 0.00 71 1017.0
20260830041019 61 135 6.0 11.0 0.00 0.00 0.00 71 1016.6
20260830040019 61 113 4.0 10.0 0.00 0.00 0.00 72 1016.6
20260830035019 61 135 3.0 5.0 0.00 0.00 0.00 73 1016.6
20260830034019 61 180 8.0 13.0 0.00 0.00 0.00 73 1016.5
20260830033039 62 158 10.0 16.0 0.00 0.00 0.00 73 1016.3
20260830032019 62 180 8.0 13.0 0.00 0.00 0.00 70 1016.3
20260830031020 63 180 2.0 7.0 0.00 0.00 0.00 69 1016.0
20260830030019 63 135 4.0 8.0 0.00 0.00 0.00 68 1016.0
20260830025019 64 158 6.0 11.0 0.00 0.00 0.00 68 1016.1
20260830024019 64 180 8.0 12.0 0.00 0.00 0.00 67 1016.1
20260830023019 65 180 7.0 12.0 0.00 0.00 0.00 66 1016.0
20260830022038 65 180 7.0 10.0 0.00 0.00 0.00 65 1016.0
20260830021040 66 158 7.0 11.0 0.00 0.00 0.00 64 1015.6
20260830020019 66 180 7.0 11.0 0.00 0.00 0.00 64 1015.6
20260830015018 66 180 8.0 12.0 0.00 0.00 0.00 63 1015.6